This demonstration page uses our WeatherBlox Daily Observations layout. Learn more.

Left ArrowRight Arrow

39.08367, -84.50855

Hourly Observations for December 31, 2019

Temp ( °F °C ) Dew Point ( °F °C ) Humidity (%) Winds ( mph kmh ) Pressure ( in mb ) Visibility ( mi km ) Precip ( " mm )
12:53 am 00:53 Cloudy 39 3.9 29 -1.7 67 67 SW 15 24 29.76 1008 10 16 N/A
1:53 am 01:53 Cloudy 39 3.9 28 -2.2 65 65 SW 15 24 29.76 1008 10 16 N/A
2:53 am 02:53 Cloudy 39 3.9 28 -2.2 65 65 SW 14 22 29.78 1008 10 16 N/A
3:53 am 03:53 Cloudy 39 3.9 26 -3.3 60 60 WSW 17 28 29.78 1009 10 16 N/A
4:53 am 04:53 Cloudy 38 3.3 27 -2.8 65 65 WSW 20 31 29.78 1009 10 16 N/A
5:53 am 05:53 Cloudy 38 3.3 28 -2.2 68 68 SW 17 28 29.79 1009 10 16 N/A
6:13 am 06:13 Cloudy 38 3.3 28 -2.2 68 68 WSW 10 17 29.81 1010 10 16 N/A
6:36 am 06:36 Cloudy 38 3.3 27 -2.8 65 65 WSW 15 24 29.82 1010 10 16 N/A
6:53 am 06:53 Cloudy 38 3.3 26 -3.3 62 62 WSW 20 31 29.81 1010 10 16 N/A
7:53 am 07:53 Cloudy 37 2.8 26 -3.3 65 65 SW 17 28 29.81 1010 10 16 N/A
8:53 am 08:53 Cloudy 37 2.8 27 -2.8 67 67 WSW 17 28 29.81 1010 10 16 N/A
9:16 am 09:16 Cloudy 37 2.8 28 -2.2 70 70 WSW 15 24 29.84 1011 10 16 N/A
9:53 am 09:53 Cloudy 37 2.8 27 -2.8 67 67 WSW 24 39 29.84 1010 10 16 N/A
10:33 am 10:33 Cloudy 37 2.8 26 -3.3 65 65 WSW 21 33 29.87 1012 10 16 N/A
10:53 am 10:53 Cloudy 37 2.8 26 -3.3 65 65 WSW 20 31 29.85 1011 10 16 N/A
11:53 am 11:53 Cloudy 37 2.8 27 -2.8 67 67 WSW 16 26 29.85 1011 10 16 N/A
12:53 pm 12:53 Cloudy 37 2.8 26 -3.3 65 65 WSW 18 30 29.86 1011 10 16 N/A
1:53 pm 13:53 Cloudy 37 2.8 26 -3.3 65 65 W 22 35 29.86 1011 10 16 N/A
2:53 pm 14:53 Cloudy 37 2.8 27 -2.8 67 67 WSW 15 24 29.87 1012 10 16 N/A
3:53 pm 15:53 Cloudy 37 2.8 27 -2.8 67 67 WSW 15 24 29.88 1012 10 16 N/A
4:53 pm 16:53 Cloudy 37 2.8 27 -2.8 67 67 WSW 10 17 29.88 1012 10 16 N/A
5:53 pm 17:53 Cloudy 37 2.8 28 -2.2 70 70 WSW 13 20 29.91 1013 10 16 N/A
6:53 pm 18:53 Cloudy 37 2.8 28 -2.2 70 70 WSW 14 22 29.92 1013 10 16 N/A
7:53 pm 19:53 Cloudy 37 2.8 28 -2.2 70 70 W 17 28 29.93 1013 10 16 N/A
8:53 pm 20:53 Cloudy 37 2.8 28 -2.2 70 70 WSW 10 17 29.92 1013 10 16 N/A
9:53 pm 21:53 Cloudy 36 2.2 28 -2.2 73 73 WSW 8 13 29.92 1013 10 16 N/A
10:16 pm 22:16 Cloudy 36 2.2 27 -2.8 70 70 WSW 17 28 29.93 1014 10 16 N/A
10:53 pm 22:53 Cloudy 36 2.2 26 -3.3 67 67 W 12 19 29.92 1013 10 16 N/A
11:53 pm 23:53 Cloudy 36 2.2 26 -3.3 67 67 W 10 17 29.93 1014 10 16 N/A

Powered by AerisWeather